Location: *
(49.6619°S, 177.4603°W)
Time: 04:59:08
(UTC+00:00)

Cosmos 1340 - Pass Details

Date: 31 January 2023
Orbit: 478 x 482 km, 81.2° (Epoch: 01 April)

Event Time Altitude Azimuth Distance (km) Brightness Sun altitude
Rises 09:16:39 0° 326° (NW) 2,582 6.1 -13.5°
Reaches altitude 10° 09:18:55 10° 315° (NW) 1,710 5.3 -13.7°
Maximum altitude 09:22:18 31° 250° (WSW) 903 4.5 -14.1°
Drops below altitude 10° 09:25:45 10° 186° (S) 1,737 6.3 -14.4°
Sets 09:28:04 0° 175° (S) 2,630 7.1 -14.7°
